[[{"header":{"parameterUnit":"m.s-1","parameterCategory":1,"la1":30.2991,"la2":30.254,"lo1":-89.0895,"lo2":-89.0444,"dy":0.0017,"dx":0.0017,"nx":28,"ny":28,"refTime":"2025-12-29T09:00:00:Z","depth":0,"parameterNumber":2,"parameterNumberName":"U-component_of_WINDS"},"data":[0,0,0,0,0,0,0,0,0,0,0,0,0,0,0,0,0,0,0,0,0,0,0,0,0,0,0,0,0,0,0,0,0,0,0,0,0,0,0,0,0,0,0,0,0,0,0,0,0,0,0,0,0,0,0,0,0,0,3.3102,3.3105,0,3.3406,3.3409,3.3413,3.3472,3.347,3.3467,3.3465,3.3783,3.3793,3.3804,0,0,0,0,0,0,0,0,0,0,0,0,0,3.2584,3.2593,3.3102,3.3106,3.311,3.3405,3.3409,3.3414,3.3473,3.347,3.3467,3.3464,3.3779,3.3792,3.3804,0,0,0,0,0,0,0,0,0,0,0,0,0,3.284,3.2596,3.3101,3.3174,3.3184,3.3404,3.341,3.3415,3.3473,3.347,3.3466,3.3463,3.3775,3.379,3.3806,3.3977,0,0,3.3855,3.3862,0,0,0,0,0,0,0,0,3.2826,3.2859,3.316,3.317,3.3181,3.3397,3.3343,3.3603,3.3474,3.3364,3.3465,3.3461,3.3658,3.3683,3.3748,3.3992,3.4005,3.3857,3.3866,3.3873,3.3878,0,0,0,0,0,0,0,3.2808,3.2847,3.3222,3.3164,3.3177,3.3196,3.3228,3.3393,3.3527,3.3373,3.3378,3.3413,3.3663,3.3733,3.3756,3.401,3.3856,3.387,3.388,3.3887,3.4417,3.4422,0,0,0,0,0,0,3.2776,3.2831,3.3213,3.3231,3.2991,3.3208,3.3244,3.3332,3.3526,3.3552,3.3416,3.3414,3.3707,3.3737,3.3767,3.3985,3.3873,3.3888,3.3897,3.4413,3.4418,3.4423,0,0,0,0,0,0,3.2764,3.2809,3.32,3.3033,3.3084,3.3221,3.3318,3.334,3.3409,3.3558,3.3583,3.3461,3.3705,3.3745,3.3926,3.3997,3.3895,3.391,3.4408,3.4414,3.4421,3.4418,0,0,0,0,0,0,3.2749,3.2805,3.2868,3.3034,3.3093,3.335,3.3323,3.3348,3.3436,3.3437,3.3607,3.3632,3.3706,3.3902,3.3942,3.4017,3.3922,3.4402,3.4411,3.4419,3.4413,3.4424,3.4434,0,0,0,0,0,3.273,3.2855,3.2871,3.2917,3.3174,3.3354,3.3388,3.3468,3.3441,3.3509,3.3605,3.3627,3.3982,3.3919,3.3965,3.4046,3.4398,3.4408,3.4418,3.4408,3.4422,3.4434,0,0,0,0,0,0,3.2695,3.2878,3.2897,3.3079,3.32,3.3364,3.345,3.3479,3.3612,3.3609,3.3704,3.3742,3.3919,3.4001,3.3928,3.4226,3.4189,3.4209,3.4166,3.418,3.4191,3.4168,3.3936,0,0,0,0,0,3.2708,3.2836,3.299,3.3135,3.3195,3.3312,3.3393,3.3445,3.3576,3.3628,3.3737,3.3865,3.4007,3.4098,3.4235,3.4425,3.4466,3.4504,3.4514,3.4522,3.4539,3.4652,3.4672,3.4456,3.4456,3.4456,0,0,3.2736,3.2852,3.2927,3.3131,3.3231,3.3366,3.3355,3.3496,3.3598,3.365,3.3828,3.3913,3.4064,3.4251,3.4339,3.4324,3.4608,3.4535,3.454,3.4553,3.4664,3.4685,3.4703,3.4463,3.4462,3.4461,0,0,3.2858,3.2956,3.3091,3.3192,3.3344,3.3422,3.3455,3.3615,3.3674,3.3854,3.3897,3.4022,3.4261,3.4368,3.4454,3.4622,3.465,3.4665,3.4721,3.483,3.4847,3.4863,3.4928,3.4949,3.468,3.468,3.468,0,3.2875,3.3076,3.3157,3.3298,3.3389,3.3441,3.3582,3.3677,3.3867,3.3931,3.3911,3.4217,3.4321,3.4538,3.4579,3.4645,3.469,3.4646,3.4837,3.4854,3.487,3.4933,3.4957,3.4682,3.4681,3.4681,3.4681,0,3.3092,3.3231,3.3322,3.3505,3.3606,3.3745,3.3852,3.3945,3.399,3.4071,3.4258,3.4385,3.4552,3.4607,3.4651,3.4832,3.4819,3.4817,3.4783,3.489,3.4952,3.4976,3.4683,3.4683,3.4682,3.4682,0,0,3.3197,3.3425,3.3458,3.3544,3.3718,3.3829,3.3974,3.4137,3.4218,3.4348,3.4476,3.468,3.4681,3.4779,3.4836,3.4931,3.5063,3.4919,3.4924,3.4945,3.5278,3.528,3.5306,3.5082,3.5087,3.5091,3.5266,0,3.3342,3.36,3.368,3.3897,3.403,3.4085,3.4213,3.4336,3.4417,3.4545,3.4636,3.4781,3.4769,3.4829,3.4925,3.5026,3.5132,3.5015,3.5206,3.5212,3.5169,3.5337,3.5339,3.5499,3.529,3.5294,3.5297,0,3.3545,3.368,3.391,3.4073,3.4132,3.4244,3.4404,3.4523,3.4667,3.472,3.4831,3.4882,3.5041,3.4996,3.522,3.5138,3.5222,3.5284,3.5292,3.5316,3.5263,3.5369,3.5551,3.5576,3.5335,3.5332,3.5329,0,3.3605,3.3844,3.4014,3.4085,3.4278,3.4357,3.4442,3.4581,3.4676,3.4816,3.488,3.5036,3.5123,3.5246,3.534,3.5297,3.5557,3.5519,3.561,3.5608,3.5664,3.5659,3.5865,3.5712,3.5711,3.5711,3.571,0,3.376,3.39,3.4044,3.4149,3.431,3.4402,3.456,3.4648,3.4773,3.4899,3.4956,3.5075,3.519,3.5325,3.54,3.5577,3.5615,3.5666,3.5685,3.5663,3.5657,3.5721,3.5714,3.5717,3.5716,3.5715,3.5713,0,3.3854,3.3955,3.4145,3.4313,3.4359,3.447,3.4616,3.4723,3.4808,3.4968,3.5011,3.5146,3.5308,3.5414,3.5621,3.5672,3.5867,3.5881,3.5818,3.5828,3.5915,3.5907,3.6172,3.6214,3.6028,3.6029,3.6031,0,3.3947,3.4057,3.4237,3.4326,3.4411,3.4552,3.465,3.4747,3.4847,3.5022,3.5109,3.5275,3.5414,3.5672,3.5791,3.5952,3.5973,3.6054,3.5997,3.5974,3.598,3.5973,3.5987,3.6064,3.6066,3.6067,3.6068,0,3.4105,3.4151,3.4288,3.4445,3.456,3.4688,3.4817,3.4887,3.5008,3.5119,3.5285,3.5392,3.5606,3.5773,3.5945,3.6037,3.6076,3.6085,3.6116,3.6096,3.6057,3.6084,3.5848,3.6079,3.6078,3.6077,3.6076,3.6076,3.4205,3.4307,3.4452,3.4604,3.4712,3.4832,3.4942,3.5042,3.5182,3.5362,3.5412,3.5588,3.5735,3.5971,3.6066,3.6208,3.6199,3.6241,3.6253,3.6263,3.6267,3.6031,3.6239,3.6239,3.6239,3.6239,3.6239,0,3.437,3.4466,3.4606,3.4785,3.4907,3.493,3.5075,3.5177,3.533,3.5463,3.5599,3.5794,3.5957,3.609,3.626,3.6348,3.6371,3.639,3.6386,3.6408,3.6263,3.6222,3.637,3.637,3.637,3.637,3.6369,3.6369,3.447,3.4645,3.4709,3.4941,3.5038,3.5209,3.5291,3.5405,3.5512,3.5726,3.5862,3.5947,3.6083,3.6263,3.6416,3.6452,3.6513,3.653,3.657,3.6432,3.6417,3.6404,3.6366,3.6542,3.6542,3.6704,3.6705,3.6706]},{"header":{"parameterUnit":"m.s-1","parameterCategory":1,"la1":30.2991,"la2":30.254,"lo1":-89.0895,"lo2":-89.0444,"dy":0.0017,"dx":0.0017,"nx":28,"ny":28,"refTime":"2025-12-29T09:00:00:Z","depth":0,"parameterNumber":3,"parameterNumberName":"V-component_of_WINDS"},"data":[0,0,0,0,0,0,0,0,0,0,0,0,0,0,0,0,0,0,0,0,0,0,0,0,0,0,0,0,0,0,0,0,0,0,0,0,0,0,0,0,0,0,0,0,0,0,0,0,0,0,0,0,0,0,0,0,0,0,-10.7938,-10.7936,0,-10.7736,-10.7734,-10.7732,-10.7586,-10.7585,-10.7584,-10.7583,-10.7365,-10.736,-10.7355,0,0,0,0,0,0,0,0,0,0,0,0,0,-10.8181,-10.8177,-10.7938,-10.7935,-10.7933,-10.7737,-10.7734,-10.7731,-10.7587,-10.7585,-10.7584,-10.7582,-10.7366,-10.7361,-10.7355,0,0,0,0,0,0,0,0,0,0,0,0,0,-10.8037,-10.8176,-10.7938,-10.7837,-10.7826,-10.7737,-10.7734,-10.773,-10.7587,-10.7585,-10.7583,-10.7582,-10.7368,-10.7361,-10.7354,-10.7346,0,0,-10.7333,-10.733,0,0,0,0,0,0,0,0,-10.8045,-10.8028,-10.7855,-10.7844,-10.7832,-10.7685,-10.7739,-10.7601,-10.7587,-10.7677,-10.7583,-10.7581,-10.7472,-10.7456,-10.7422,-10.7336,-10.7326,-10.7332,-10.7328,-10.7325,-10.7323,0,0,0,0,0,0,0,-10.8055,-10.8036,-10.7858,-10.7852,-10.7838,-10.7797,-10.7774,-10.7713,-10.7587,-10.7669,-10.7659,-10.7637,-10.7465,-10.7429,-10.7416,-10.7323,-10.7332,-10.7326,-10.7322,-10.7319,-10.7208,-10.7209,0,0,0,0,0,0,-10.8083,-10.8045,-10.7864,-10.7852,-10.7937,-10.7794,-10.7769,-10.7734,-10.7587,-10.7563,-10.7639,-10.7631,-10.7442,-10.7424,-10.7407,-10.7381,-10.7325,-10.7318,-10.7314,-10.7207,-10.7209,-10.721,0,0,0,0,0,0,-10.8089,-10.8068,-10.7872,-10.7945,-10.7917,-10.7792,-10.7753,-10.7731,-10.7695,-10.7564,-10.7539,-10.7627,-10.744,-10.7417,-10.7361,-10.7372,-10.7315,-10.7309,-10.7205,-10.7207,-10.7209,-10.7335,0,0,0,0,0,0,-10.8096,-10.8071,-10.8072,-10.7947,-10.7914,-10.7835,-10.7754,-10.7728,-10.7684,-10.7672,-10.7546,-10.7523,-10.7437,-10.7372,-10.7354,-10.7361,-10.7303,-10.7204,-10.7206,-10.7209,-10.7329,-10.7341,-10.7351,0,0,0,0,0,-10.8106,-10.8114,-10.8072,-10.8051,-10.7912,-10.7836,-10.7817,-10.7721,-10.7686,-10.7681,-10.7596,-10.7527,-10.7374,-10.7368,-10.7346,-10.7352,-10.7203,-10.7206,-10.7208,-10.7324,-10.7338,-10.735,0,0,0,0,0,0,-10.8241,-10.8096,-10.8048,-10.8018,-10.7941,-10.7812,-10.7804,-10.7741,-10.7669,-10.7661,-10.754,-10.7513,-10.7467,-10.7403,-10.7399,-10.733,-10.7279,-10.7278,-10.7374,-10.7387,-10.7397,-10.7413,-10.7297,0,0,0,0,0,-10.8268,-10.8223,-10.8097,-10.8081,-10.8045,-10.7932,-10.7895,-10.7828,-10.7741,-10.7707,-10.7618,-10.7533,-10.7464,-10.7422,-10.7353,-10.7318,-10.7284,-10.731,-10.7321,-10.7331,-10.733,-10.7298,-10.7306,-10.722,-10.722,-10.722,0,0,-10.8322,-10.8237,-10.8216,-10.8106,-10.8039,-10.7989,-10.7905,-10.7858,-10.7818,-10.7698,-10.7639,-10.757,-10.7466,-10.7419,-10.7393,-10.7364,-10.7346,-10.7335,-10.7343,-10.7337,-10.7302,-10.7311,-10.7318,-10.7222,-10.7221,-10.7221,0,0,-10.8394,-10.8329,-10.8306,-10.8239,-10.8138,-10.8061,-10.8056,-10.7935,-10.7886,-10.7825,-10.7732,-10.7679,-10.7567,-10.7494,-10.7442,-10.7479,-10.7409,-10.7459,-10.7516,-10.7486,-10.7493,-10.7498,-10.7505,-10.751,-10.7459,-10.746,-10.746,0,-10.8473,-10.84,-10.8301,-10.8257,-10.8208,-10.81,-10.8071,-10.801,-10.789,-10.7856,-10.7826,-10.7677,-10.7599,-10.753,-10.7538,-10.7502,-10.7485,-10.7473,-10.7501,-10.7505,-10.7508,-10.7513,-10.7517,-10.7466,-10.7465,-10.7465,-10.7464,0,-10.8498,-10.8448,-10.844,-10.833,-10.828,-10.8244,-10.8133,-10.8093,-10.8028,-10.7952,-10.7886,-10.7789,-10.7694,-10.7673,-10.7609,-10.7591,-10.7575,-10.7525,-10.747,-10.7525,-10.7527,-10.7529,-10.7475,-10.7473,-10.7471,-10.7469,0,0,-10.8652,-10.8485,-10.8483,-10.8429,-10.8307,-10.8263,-10.8218,-10.8128,-10.8093,-10.8012,-10.7967,-10.787,-10.782,-10.7762,-10.7687,-10.7662,-10.7688,-10.7612,-10.7607,-10.7625,-10.7653,-10.769,-10.7695,-10.7641,-10.7641,-10.7641,-10.766,0,-10.8702,-10.8623,-10.8529,-10.8479,-10.8426,-10.8319,-10.8279,-10.8196,-10.8122,-10.8061,-10.7976,-10.7908,-10.7851,-10.7814,-10.7784,-10.7692,-10.7691,-10.7689,-10.7591,-10.7588,-10.7619,-10.7697,-10.7738,-10.7761,-10.7661,-10.7661,-10.7661,0,-10.8751,-10.8678,-10.8623,-10.85,-10.8474,-10.8441,-10.8347,-10.8294,-10.8193,-10.814,-10.8072,-10.7991,-10.7929,-10.7883,-10.7792,-10.7793,-10.7745,-10.7693,-10.7691,-10.7676,-10.7628,-10.768,-10.7767,-10.7769,-10.7663,-10.7663,-10.7663,0,-10.8863,-10.875,-10.8701,-10.8658,-10.8515,-10.8492,-10.843,-10.8329,-10.8278,-10.8194,-10.8158,-10.8067,-10.8016,-10.7943,-10.7836,-10.7813,-10.7753,-10.7699,-10.7701,-10.7703,-10.7693,-10.7694,-10.7769,-10.7668,-10.7668,-10.7668,-10.7668,0,-10.8927,-10.8896,-10.8749,-10.8719,-10.8678,-10.8567,-10.8528,-10.8455,-10.8364,-10.8312,-10.8212,-10.8163,-10.8027,-10.7959,-10.7874,-10.7807,-10.7786,-10.7735,-10.7713,-10.7743,-10.7749,-10.771,-10.7704,-10.7669,-10.7668,-10.7668,-10.7668,0,-10.9045,-10.8946,-10.8884,-10.8753,-10.8719,-10.8694,-10.8578,-10.854,-10.8459,-10.8393,-10.8371,-10.8241,-10.8156,-10.8043,-10.7921,-10.7863,-10.7805,-10.7771,-10.7841,-10.7827,-10.7833,-10.7832,-10.7882,-10.788,-10.7785,-10.7786,-10.7787,0,-10.9091,-10.9065,-10.8931,-10.8891,-10.8834,-10.8771,-10.8719,-10.8606,-10.8554,-10.8434,-10.8409,-10.8317,-10.8237,-10.8104,-10.7994,-10.7897,-10.7858,-10.7882,-10.7843,-10.7872,-10.7852,-10.7855,-10.7848,-10.7892,-10.7893,-10.7895,-10.7896,0,-10.9181,-10.9132,-10.9065,-10.8979,-10.8921,-10.8846,-10.8766,-10.8737,-10.8605,-10.8551,-10.8465,-10.8403,-10.8278,-10.8185,-10.8073,-10.8,-10.7923,-10.7909,-10.7903,-10.7933,-10.7972,-10.7946,-10.7863,-10.7908,-10.7907,-10.7906,-10.7905,-10.7905,-10.9261,-10.9231,-10.9131,-10.9057,-10.8985,-10.8912,-10.8868,-10.8782,-10.871,-10.8604,-10.8538,-10.8453,-10.8343,-10.8186,-10.8116,-10.8041,-10.8011,-10.8005,-10.8002,-10.8002,-10.8009,-10.7987,-10.802,-10.802,-10.8019,-10.8019,-10.8018,0,-10.9342,-10.9272,-10.9206,-10.9098,-10.9037,-10.8976,-10.8881,-10.8833,-10.8761,-10.8669,-10.8592,-10.8488,-10.8395,-10.8277,-10.8173,-10.8136,-10.8097,-10.8112,-10.8112,-10.8094,-10.8044,-10.8058,-10.8144,-10.8144,-10.8144,-10.8144,-10.8144,-10.8144,-10.9377,-10.9321,-10.926,-10.9164,-10.9091,-10.9012,-10.8963,-10.889,-10.8816,-10.8707,-10.8631,-10.8556,-10.8449,-10.8336,-10.8244,-10.8211,-10.8175,-10.82,-10.8155,-10.811,-10.8099,-10.8088,-10.81,-10.8194,-10.8194,-10.8211,-10.8211,-10.8211]}]]